• In Hungary
  • List of Countries
  • For 7 days
  • Water Temperature
  • Satellite Maps
  • Weather Map
  • News
  • Weather Widgets
  • user-avatar
    Login

    Hourly Weather Bitola

    Today, 13 November, Tuesday

    Time Temperature Precipitation Wind Pressure Humidity
    00:00 +7°C° 0 mm 0 mps 710 mmHg 56%
    01:00 +8°C° 0 mm 1 mps 710 mmHg 57%
    02:00 +8°C° 0 mm 1 mps 710 mmHg 58%
    03:00 +8°C° 0 mm 1 mps 710 mmHg 59%
    04:00 +8°C° 0 mm 1 mps 710 mmHg 60%
    05:00 +8°C° 0 mm 1 mps 710 mmHg 60%
    06:00 +8°C° 0 mm 1 mps 710 mmHg 60%
    07:00 +8°C° 0 mm 1 mps 711 mmHg 57%
    08:00 +11°C° 0 mm 1 mps 711 mmHg 51%
    09:00 +13°C° 0 mm 1 mps 711 mmHg 44%
    10:00 +15°C° 0 mm 1 mps 711 mmHg 38%
    11:00 +16°C° 0 mm 1 mps 711 mmHg 36%
    12:00 +18°C° 0 mm 1 mps 711 mmHg 34%
    13:00 +19°C° 0 mm 1 mps 711 mmHg 31%
    14:00 +16°C° 0 mm 1 mps 710 mmHg 36%
    15:00 +15°C° 0 mm 1 mps 710 mmHg 40%
    16:00 +14°C° 0 mm 1 mps 710 mmHg 44%
    17:00 +13°C° 0 mm 1 mps 710 mmHg 49%
    18:00 +11°C° 0 mm 1 mps 710 mmHg 54%
    19:00 +10°C° 0 mm 1 mps 709 mmHg 59%
    20:00 +10°C° 0 mm 1 mps 710 mmHg 61%
    21:00 +9°C° 0 mm 1 mps 710 mmHg 63%
    22:00 +9°C° 0 mm 1 mps 710 mmHg 66%
    23:00 +9°C° 0 mm 1 mps 709 mmHg 67%

    Tomorrow, 14 November, Wednesday

    Time Temperature Precipitation Wind Pressure Humidity
    00:00 +8°C° 0 mm 1 mps 709 mmHg 69%
    01:00 +8°C° 0 mm 1 mps 709 mmHg 70%
    02:00 +8°C° 0 mm 1 mps 709 mmHg 70%
    03:00 +8°C° 0 mm 1 mps 708 mmHg 71%
    04:00 +8°C° 0 mm 1 mps 708 mmHg 71%
    05:00 +8°C° 0 mm 1 mps 708 mmHg 70%
    06:00 +8°C° 0 mm 1 mps 708 mmHg 68%
    07:00 +8°C° 0 mm 1 mps 708 mmHg 67%
    08:00 +10°C° 0 mm 1 mps 709 mmHg 58%
    09:00 +13°C° 0 mm 2 mps 709 mmHg 49%
    10:00 +15°C° 0 mm 2 mps 709 mmHg 40%
    11:00 +16°C° 0 mm 2 mps 709 mmHg 41%
    12:00 +17°C° 0 mm 3 mps 709 mmHg 41%
    13:00 +17°C° 0 mm 3 mps 708 mmHg 41%
    14:00 +16°C° 0 mm 3 mps 708 mmHg 47%
    15:00 +15°C° 0 mm 2 mps 707 mmHg 53%
    16:00 +14°C° 0 mm 2 mps 707 mmHg 58%
    17:00 +12°C° 0 mm 2 mps 707 mmHg 64%
    18:00 +10°C° 0 mm 2 mps 707 mmHg 70%
    19:00 +9°C° 0 mm 2 mps 707 mmHg 76%
    20:00 +8°C° 0 mm 2 mps 707 mmHg 78%
    21:00 +8°C° 0 mm 2 mps 707 mmHg 79%
    22:00 +7°C° 0 mm 2 mps 707 mmHg 81%
    23:00 +7°C° 0 mm 2 mps 707 mmHg 80%

    Day after tomorrow, 15 November, Thursday

    Time Temperature Precipitation Wind Pressure Humidity
    00:00 +6°C° 0 mm 2 mps 707 mmHg 80%
    01:00 +6°C° 0 mm 2 mps 707 mmHg 80%
    02:00 +5°C° 0 mm 2 mps 706 mmHg 80%
    03:00 +5°C° 0 mm 2 mps 706 mmHg 80%
    04:00 +5°C° 0 mm 2 mps 706 mmHg 81%
    05:00 +4°C° 0 mm 2 mps 706 mmHg 81%
    06:00 +4°C° 0 mm 2 mps 706 mmHg 81%
    07:00 +4°C° 0 mm 2 mps 706 mmHg 81%
    08:00 +5°C° 0 mm 3 mps 706 mmHg 70%
    09:00 +8°C° 0 mm 3 mps 706 mmHg 60%
    10:00 +10°C° 0 mm 4 mps 707 mmHg 50%
    11:00 +10°C° 0 mm 4 mps 706 mmHg 47%
    12:00 +11°C° 0 mm 4 mps 706 mmHg 44%
    13:00 +11°C° 0 mm 4 mps 706 mmHg 41%
    14:00 +10°C° 0 mm 4 mps 706 mmHg 44%
    15:00 +9°C° 0 mm 3 mps 706 mmHg 47%
    16:00 +8°C° 0 mm 3 mps 705 mmHg 50%
    17:00 +7°C° 0 mm 3 mps 706 mmHg 55%
    18:00 +6°C° 0 mm 2 mps 706 mmHg 61%
    19:00 +4°C° 0 mm 2 mps 706 mmHg 66%
    20:00 +4°C° 0 mm 2 mps 707 mmHg 70%
    21:00 +3°C° 0 mm 2 mps 707 mmHg 73%
    22:00 +3°C° 0 mm 2 mps 707 mmHg 77%
    23:00 +3°C° 0 mm 2 mps 707 mmHg 80%

    16 November, Friday

    Time Temperature Precipitation Wind Pressure Humidity
    00:00 +2°C° 0 mm 2 mps 707 mmHg 82%
    01:00 +2°C° 0 mm 2 mps 707 mmHg 85%
    02:00 +2°C° 0 mm 2 mps 707 mmHg 86%
    03:00 +2°C° 0 mm 2 mps 707 mmHg 87%
    04:00 +1°C° 0 mm 2 mps 707 mmHg 88%
    05:00 +1°C° 0 mm 2 mps 707 mmHg 88%
    06:00 +1°C° 0 mm 2 mps 708 mmHg 88%
    07:00 +1°C° 0 mm 2 mps 708 mmHg 88%
    08:00 +3°C° 0 mm 2 mps 708 mmHg 77%
    09:00 +5°C° 0 mm 2 mps 708 mmHg 67%
    10:00 +7°C° 0 mm 2 mps 709 mmHg 56%
    11:00 +8°C° 0 mm 3 mps 708 mmHg 52%
    12:00 +8°C° 0 mm 3 mps 708 mmHg 48%
    13:00 +9°C° 0 mm 3 mps 708 mmHg 44%
    14:00 +8°C° 0 mm 2 mps 708 mmHg 47%
    15:00 +7°C° 0 mm 2 mps 708 mmHg 49%
    16:00 +6°C° 0 mm 2 mps 707 mmHg 52%
    17:00 +5°C° 0 mm 2 mps 708 mmHg 56%
    18:00 +4°C° 0 mm 2 mps 708 mmHg 60%
    19:00 +3°C° 0 mm 2 mps 708 mmHg 63%
    20:00 +3°C° 0 mm 2 mps 708 mmHg 66%
    21:00 +2°C° 0 mm 2 mps 709 mmHg 68%
    22:00 +2°C° 0 mm 2 mps 709 mmHg 70%
    23:00 +2°C° 0 mm 2 mps 709 mmHg 72%

    17 November, Saturday

    Time Temperature Precipitation Wind Pressure Humidity
    00:00 +1°C° 0 mm 2 mps 709 mmHg 75%
    01:00 +1°C° 0 mm 2 mps 709 mmHg 77%
    02:00 +1°C° 0 mm 2 mps 708 mmHg 79%
    03:00 -1°C° 0 mm 2 mps 708 mmHg 81%
    04:00 -1°C° 0 mm 2 mps 708 mmHg 83%
    05:00 -1°C° 0 mm 2 mps 708 mmHg 83%
    06:00 -1°C° 0 mm 2 mps 708 mmHg 83%
    07:00 -1°C° 0 mm 2 mps 708 mmHg 83%
    08:00 +2°C° 0 mm 2 mps 709 mmHg 74%
    09:00 +3°C° 0 mm 2 mps 709 mmHg 65%
    10:00 +5°C° 0 mm 2 mps 709 mmHg 57%
    11:00 +6°C° 0 mm 2 mps 708 mmHg 54%
    12:00 +5°C° 0 mm 3 mps 708 mmHg 52%
    13:00 +7°C° 0 mm 3 mps 707 mmHg 50%
    14:00 +5°C° 0 mm 3 mps 707 mmHg 52%
    15:00 +4°C° 0 mm 3 mps 707 mmHg 54%
    16:00 +5°C° 0 mm 2 mps 707 mmHg 57%
    17:00 +4°C° 0 mm 2 mps 707 mmHg 59%
    18:00 +3°C° 0 mm 2 mps 707 mmHg 61%
    19:00 +3°C° 0 mm 2 mps 707 mmHg 64%
    20:00 +2°C° 0 mm 2 mps 707 mmHg 65%
    21:00 +2°C° 0 mm 2 mps 707 mmHg 66%
    22:00 +1°C° 0 mm 2 mps 707 mmHg 67%
    23:00 +1°C° 0 mm 2 mps 706 mmHg 68%

    18 November, Sunday

    Time Temperature Precipitation Wind Pressure Humidity
    00:00 +1°C° 0 mm 2 mps 706 mmHg 68%
    01:00 +1°C° 0 mm 2 mps 706 mmHg 69%
    02:00 +1°C° 0.1 mm 2 mps 706 mmHg 69%
    03:00 +1°C° 0.1 mm 2 mps 705 mmHg 70%
    04:00 +1°C° 0.1 mm 2 mps 705 mmHg 71%
    05:00 +1°C° 0.1 mm 2 mps 705 mmHg 72%
    06:00 +1°C° 0.1 mm 2 mps 704 mmHg 73%
    07:00 +1°C° 0.1 mm 2 mps 704 mmHg 74%
    08:00 +1°C° 0.1 mm 3 mps 704 mmHg 72%
    09:00 +2°C° 0.1 mm 3 mps 704 mmHg 69%
    10:00 +3°C° 0.1 mm 3 mps 704 mmHg 67%
    11:00 +3°C° 0.4 mm 3 mps 703 mmHg 67%
    12:00 +3°C° 0.4 mm 3 mps 702 mmHg 68%
    13:00 +4°C° 0.4 mm 3 mps 702 mmHg 68%
    14:00 +3°C° 0.8 mm 3 mps 702 mmHg 72%
    15:00 +3°C° 0.8 mm 3 mps 701 mmHg 76%
    16:00 +3°C° 0.8 mm 2 mps 701 mmHg 80%
    17:00 +3°C° 0.3 mm 2 mps 701 mmHg 82%
    18:00 +3°C° 0.3 mm 2 mps 700 mmHg 84%
    19:00 +3°C° 0.3 mm 2 mps 700 mmHg 86%
    20:00 +3°C° 0.1 mm 2 mps 700 mmHg 86%
    21:00 +3°C° 0.1 mm 2 mps 699 mmHg 87%
    22:00 +3°C° 0.1 mm 2 mps 699 mmHg 87%
    23:00 +3°C° 0.2 mm 2 mps 699 mmHg 87%
    Show more